Regional Weather Roundup
Issued by NWS

Home | Current Version | Previous Version | Graphics & Text | Print | Product List | Glossary On
Versions: 1 2 3 4 5 6 7 8 9 10 11 12 13 14 15 16 17 18 19 20 21 22 23 24 25 26 27 28 29 30 31 32 33 34 35 36 37 38 39 40 41 42 43 44 45 46 47 48 49 50
000
ASUS43 KLMK 230402
RWRKY
KENTUCKY REGIONAL WEATHER ROUNDUP
NATIONAL WEATHER SERVICE LOUISVILLE KY
1200 AM EDT SAT AUG 23 2014

NOTE "FAIR" INDICATES FEW OR NO CLOUDS BELOW 12,000 FEET
WITH NO SIGNIFICANT WEATHER AND/OR OBSTRUCTIONS TO VISIBILITY.

KYZ001>023-026-027-061>063-070>075-230500-
WESTERN AND SOUTH CENTRAL KENTUCKY

CITY           SKY/WX    TMP DP  RH WIND       PRES   REMARKS
PADUCAH        MOCLDY    83  75  77 S6        29.98S HX  90
HENDERSON      CLOUDY    79  73  83 CALM      29.97F
OWENSBORO      MOCLDY    81  77  88 CALM      29.99F
HOPKINSVILLE   PTCLDY    80  78  93 SW2       30.01S
BOWLING GREEN  CLOUDY    83  73  72 SW7       30.01F
GLASGOW        MOCLDY    79  73  83 NE6       30.03S THUNDER
$$

KYZ024-025-028>034-038-045-046-053-230500-
NORTH CENTRAL KENTUCKY

CITY           SKY/WX    TMP DP  RH WIND       PRES   REMARKS
LOUISVILLE/SDF CLOUDY    75  71  87 S3        30.00F
LOUISVILLE/LOU CLOUDY    74  72  93 SE3       30.01F
FORT KNOX      CLOUDY    73  73 100 CALM      30.00F
$$

KYZ035>037-039>044-047>052-055>060-089>105-230500-
NORTHEAST KENTUCKY

CITY           SKY/WX    TMP DP  RH WIND       PRES   REMARKS
LEXINGTON      CLOUDY    75  72  90 S5        30.04S FOG
COVINGTON      PTCLDY    72  70  93 CALM      30.01S
FRANKFORT      CLOUDY    72  70  93 SW3       30.02S
$$

KYZ054-064>069-076>088-106>120-230500-
SOUTHEAST KENTUCKY

CITY           SKY/WX    TMP DP  RH WIND       PRES   REMARKS
JACKSON        CLOUDY    72  69  90 CALM      30.06F
LONDON         CLOUDY    78  72  81 CALM      30.05F
SOMERSET       CLOUDY    75  73  94 CALM      30.05S
MIDDLESBORO    CLOUDY    74  72  94 CALM      30.06F
MONTICELLO     CLOUDY    74  72  93 CALM      30.06R
$$




USA.gov is the U.S. government's official web portal to all federal, state and local government web resources and services.